Theta_e
362 362 361 361 360 359 358 357 357 356 356 356 357 356 355 356 358 360 360 360 361 361 361 360 359 359 359 359 359 359 359 359 360 361 359 359 360 359 359 358 358 357 356 354 352 350 350 349 346 342 340 343 344 346 346 345 345 343 341 342 341 341 341 341 344 344 342 341 342 339 337 336 335 335 336 336 336 337 337 337 337 338 338 338 338
363 362 362 361 360 359 358 358 357 357 357 357 357 356 356 356 356 359 360 361 361 360 361 361 360 359 358 359 359 359 359 360 360 361 361 360 361 361 360 359 358 358 357 354 352 351 350 349 348 345 343 342 342 344 345 345 345 345 344 343 342 341 341 341 342 342 342 342 342 342 340 337 336 335 336 336 337 337 338 338 338 338 338 338 338
363 363 363 362 361 360 359 358 357 357 358 358 358 357 357 356 356 357 359 361 361 360 360 360 360 359 358 359 360 360 360 360 361 362 361 361 362 362 361 360 359 358 357 356 353 351 351 351 349 346 344 344 343 342 343 345 345 346 345 344 343 342 342 342 341 342 342 341 341 342 341 338 337 337 337 337 338 338 339 339 339 339 339 339 339
364 363 363 363 362 361 360 359 358 358 358 358 358 358 357 357 356 357 357 358 361 362 360 358 359 360 359 358 359 360 361 361 361 362 362 362 362 362 361 360 359 358 357 357 355 352 351 352 351 348 345 345 345 344 343 343 344 346 346 345 344 343 342 343 342 341 341 341 341 340 341 341 340 339 339 339 339 339 339 339 339 340 340 340 340
365 364 364 363 363 362 361 360 359 358 358 358 358 358 357 357 357 356 357 357 359 361 361 359 358 359 360 359 359 359 360 361 361 361 361 361 362 362 361 360 359 359 358 356 356 354 353 352 351 350 348 345 346 346 345 344 343 345 346 346 345 344 343 343 343 343 342 342 341 340 340 342 342 341 340 340 340 340 340 340 340 339 340 341 341
367 365 365 364 364 363 362 360 359 359 358 358 358 358 358 358 357 357 357 357 358 359 361 361 358 357 359 359 359 359 358 360 361 361 361 361 361 361 360 359 359 359 359 357 356 355 354 353 352 351 350 347 346 346 347 346 345 345 345 346 345 344 343 343 344 344 344 343 343 342 341 341 343 343 341 341 340 340 340 340 340 339 340 341 341
368 367 366 365 364 364 363 361 360 359 359 357 357 357 357 357 358 358 357 357 358 359 360 361 360 358 357 358 359 360 359 360 360 361 361 361 361 361 360 359 359 358 359 359 358 356 355 354 352 351 351 349 346 346 347 347 347 345 345 346 346 345 345 344 344 344 344 344 344 344 343 342 343 343 343 342 341 341 341 341 341 341 340 341 341
369 368 367 366 364 364 363 362 361 360 359 358 357 357 356 356 357 358 358 358 358 359 360 361 361 360 358 357 358 360 361 360 361 361 362 361 361 361 360 360 359 358 358 359 359 358 356 355 354 352 352 350 348 346 346 347 348 348 347 346 346 346 346 345 345 344 345 345 344 344 344 343 343 343 343 344 343 342 341 341 341 341 341 341 340
369 369 368 366 365 364 363 362 361 361 360 359 358 357 356 356 356 357 358 359 358 358 358 360 361 361 360 359 358 358 361 361 361 361 361 361 361 361 360 360 359 359 358 358 359 359 358 356 355 354 353 352 350 348 345 345 346 347 348 347 347 347 346 346 345 345 345 345 345 344 343 344 344 343 344 345 344 343 342 341 341 341 341 341 341
369 369 368 367 365 363 362 362 361 361 361 360 358 357 357 357 356 356 358 359 358 357 357 358 360 360 361 360 360 359 360 361 362 362 361 361 360 361 361 360 360 360 359 358 359 359 358 358 356 355 354 353 352 350 348 345 345 345 345 346 346 346 347 346 346 345 345 345 345 345 344 343 343 343 343 344 344 343 343 342 342 341 341 342 342
369 368 368 367 366 364 362 362 361 361 361 361 360 358 358 357 357 356 357 359 359 358 358 358 359 360 361 361 361 361 360 361 362 362 362 361 360 360 360 361 361 361 360 359 358 358 359 358 357 356 356 355 353 352 351 348 346 345 344 345 344 344 345 346 346 346 345 345 344 345 345 344 344 343 342 342 343 343 343 342 342 341 342 342 342
368 367 368 367 367 366 364 362 362 361 361 361 361 360 358 357 357 357 357 359 360 360 359 358 358 360 360 361 361 362 361 361 361 362 362 362 361 360 360 361 361 361 361 360 359 359 359 359 359 358 357 356 355 354 353 351 349 347 346 345 344 343 344 344 345 345 345 345 344 344 344 345 344 345 344 342 342 342 343 343 342 341 341 341 342
366 367 367 367 367 367 365 364 363 362 361 360 360 360 359 357 357 357 357 358 360 361 361 360 359 359 361 361 362 361 362 362 361 361 362 362 361 360 360 360 361 361 361 361 360 359 359 359 359 359 358 357 356 355 355 353 352 350 348 347 346 345 344 343 343 343 343 345 345 344 344 344 344 344 344 343 343 342 343 343 343 343 343 342 342
365 366 366 367 367 367 367 365 364 363 362 361 360 361 360 358 357 357 358 358 359 361 362 361 360 359 360 361 362 362 362 362 362 361 361 361 361 361 360 359 360 361 361 361 360 360 360 360 360 360 359 358 357 356 356 355 354 352 350 348 347 346 346 345 344 343 343 343 344 344 343 343 343 343 343 344 344 342 342 343 343 343 343 343 342
364 366 366 366 367 368 368 366 365 364 363 362 361 361 360 360 358 357 358 358 358 360 361 362 362 360 359 360 361 363 363 363 363 363 362 362 361 361 361 360 359 359 360 360 360 360 359 359 360 360 360 359 359 358 357 356 355 353 351 350 348 347 347 346 345 345 344 343 343 342 341 341 341 342 342 344 344 343 342 341 342 342 343 343 343
363 365 366 366 367 368 368 367 366 366 365 364 363 362 361 361 359 358 358 358 358 359 360 361 362 362 361 360 360 361 362 363 363 363 363 363 362 362 361 360 360 359 359 359 359 359 359 359 359 359 359 359 359 359 358 357 356 354 352 350 349 348 347 347 346 345 345 344 343 342 341 341 341 342 343 343 344 344 343 341 341 342 343 343 343
362 365 367 366 367 368 369 368 367 367 366 366 365 364 363 362 361 360 358 358 359 359 359 360 361 362 362 361 360 360 361 362 364 364 365 364 364 363 362 361 360 359 359 358 358 358 359 359 358 358 358 358 359 359 359 358 357 355 353 352 350 348 348 348 347 346 346 345 344 343 343 343 343 343 343 344 344 344 343 343 343 343 343 342 342
361 364 366 367 367 369 369 369 368 367 367 367 366 366 365 363 363 362 360 359 359 359 359 359 360 361 362 362 362 361 360 361 363 364 366 366 366 365 363 361 360 360 360 359 359 359 358 358 358 358 357 357 357 358 358 358 358 356 354 353 351 349 349 348 347 347 347 346 346 345 344 344 344 344 344 344 344 344 344 344 344 343 342 342 342
359 362 365 367 367 370 370 370 369 368 368 368 368 367 367 365 365 365 363 362 360 359 360 360 360 361 361 362 363 362 362 361 361 363 365 367 368 367 365 362 361 360 361 360 360 359 359 358 359 358 358 357 357 357 357 358 358 356 355 354 353 351 351 350 348 348 348 347 347 347 346 346 346 346 345 345 344 344 345 344 344 343 342 341 341
357 359 362 366 368 369 371 371 371 370 369 369 369 369 368 368 367 367 366 365 363 361 361 361 361 361 361 362 362 362 363 362 362 362 363 365 367 368 366 364 362 362 361 361 361 360 359 359 360 359 360 359 358 357 357 357 358 357 356 355 354 353 352 351 350 349 348 348 348 347 347 347 347 347 347 347 346 345 345 344 344 343 342 341 341
356 357 360 365 368 369 371 372 371 371 370 370 370 370 370 369 369 368 368 368 366 364 363 362 362 363 363 363 362 363 363 364 364 364 363 363 364 366 366 365 363 362 362 361 361 361 360 360 359 359 360 360 360 360 359 357 357 357 356 356 355 355 354 353 352 351 350 349 348 348 348 347 347 347 347 347 347 346 346 346 344 343 342 341 341
354 357 360 363 367 369 370 372 372 371 371 371 371 371 371 370 370 369 369 369 368 366 365 363 363 363 364 364 364 364 364 364 364 365 365 364 364 364 364 365 364 363 363 362 362 362 362 362 361 360 360 360 360 361 361 360 359 358 357 357 356 355 355 354 354 353 351 350 349 348 348 347 347 347 346 346 346 346 346 346 345 343 342 341 341
354 356 359 362 366 369 370 372 373 372 373 372 372 373 372 372 371 371 370 370 369 368 366 365 364 363 364 365 366 366 366 365 366 365 365 366 365 365 364 364 364 364 363 363 363 363 363 363 362 362 362 361 360 360 360 361 361 360 360 359 357 357 356 355 355 354 353 352 350 349 348 347 347 347 346 345 345 345 345 345 345 344 343 342 341
356 357 360 363 366 369 370 372 373 373 373 374 373 373 374 373 372 372 371 370 369 369 368 366 365 364 363 363 365 367 367 368 368 367 367 366 366 366 366 365 364 364 364 363 364 364 364 364 364 363 363 362 362 361 361 361 361 361 361 361 360 359 356 354 354 354 353 353 351 350 349 348 347 347 346 346 345 344 344 344 344 344 342 342 341
362 360 363 365 367 369 370 372 373 374 374 375 374 374 374 373 372 371 371 371 370 370 369 368 367 366 365 364 364 366 367 368 368 368 368 368 367 366 366 366 365 365 364 363 363 363 363 363 363 363 363 363 363 362 362 361 361 361 361 361 361 361 357 354 353 353 353 353 352 351 350 349 348 348 347 346 345 344 343 343 342 343 342 341 341
367 364 365 368 368 369 370 372 373 373 374 374 375 374 374 374 373 371 371 371 370 370 370 370 369 368 367 366 366 365 366 366 367 367 368 368 368 367 365 366 365 364 363 362 362 362 363 363 363 363 363 363 363 362 362 362 362 361 361 361 361 360 356 353 351 352 352 351 352 352 352 350 349 348 347 345 344 343 342 341 340 341 341 340 340
370 367 367 369 371 371 371 373 374 373 374 375 375 374 375 374 373 372 372 371 370 370 370 370 370 370 369 368 368 367 367 366 365 365 365 366 366 366 364 364 363 362 361 360 360 361 361 361 361 360 360 361 360 360 360 360 360 360 359 359 359 358 356 353 350 348 346 346 349 351 351 349 347 346 345 344 343 342 341 340 339 339 339 339 338
372 371 370 370 372 372 372 373 375 374 372 372 373 374 374 374 373 372 372 371 371 371 371 371 371 370 370 369 369 366 363 362 361 361 362 362 362 361 361 361 360 360 359 359 359 359 359 359 359 359 359 358 358 359 359 359 358 358 357 356 355 355 355 354 350 346 344 345 345 346 346 345 344 344 344 343 342 341 340 339 339 338 338 337 334
372 372 370 370 371 371 373 375 374 370 367 365 364 365 367 370 371 370 369 371 371 370 370 370 369 369 367 368 368 364 357 355 357 359 359 359 360 360 359 359 360 359 359 359 359 358 357 355 353 354 354 354 355 355 356 356 356 356 355 353 352 351 350 349 347 345 346 346 345 343 344 345 344 342 342 341 340 341 340 339 338 338 336 334 332
372 371 372 371 370 369 371 372 368 365 363 360 357 355 356 362 366 366 365 368 369 369 370 369 367 366 364 361 360 358 354 350 350 351 352 352 352 352 351 352 352 354 355 356 357 357 354 350 347 348 349 349 350 352 352 353 354 354 354 353 352 351 349 348 347 347 347 347 347 345 345 345 343 341 340 339 340 341 340 338 338 336 333 331 330
369 370 371 372 370 369 369 368 362 360 360 359 356 353 351 351 355 359 361 365 366 367 367 365 362 362 361 355 349 344 342 340 338 337 337 337 335 335 335 335 336 337 339 342 344 344 344 343 342 343 343 344 346 347 348 348 349 349 350 350 350 351 350 349 348 348 347 347 347 346 346 345 343 341 340 339 339 339 339 337 336 334 331 330 328
367 368 369 370 370 370 369 367 361 356 354 353 353 353 347 341 340 344 350 356 359 360 359 358 355 354 353 351 344 336 332 331 330 330 330 330 330 331 331 331 331 331 331 331 332 333 333 334 334 334 335 335 336 337 337 337 338 338 339 340 341 342 344 345 346 347 347 347 347 346 346 345 344 342 340 339 339 339 337 336 334 332 329 328 327
366 366 367 370 370 371 371 368 360 354 351 348 346 347 343 337 333 334 338 341 344 344 344 344 344 341 339 339 337 334 332 332 332 332 332 333 333 334 333 334 334 333 333 333 333 333 333 332 332 332 332 332 332 332 333 333 333 333 333 333 334 335 335 337 339 341 344 345 345 346 346 346 344 342 340 339 338 338 336 335 333 330 328 326 326
365 365 366 367 368 370 371 367 359 355 352 348 344 342 339 336 334 334 334 335 335 336 335 335 334 334 333 334 334 333 333 334 334 335 335 335 336 335 335 334 334 334 334 334 334 334 334 334 333 333 333 333 333 333 333 333 333 333 333 333 333 333 334 334 335 336 338 340 342 344 345 345 345 343 340 338 337 336 335 334 332 329 327 326 325
362 362 363 364 364 366 368 367 363 359 353 347 344 340 337 336 336 335 335 335 334 335 336 336 335 335 335 335 336 335 335 336 336 336 336 336 336 335 334 334 335 335 334 333 333 334 334 334 333 333 332 332 332 332 332 332 332 332 332 332 332 333 333 333 334 334 335 336 338 340 342 343 343 342 341 338 336 335 334 333 331 329 327 326 325
357 356 357 359 359 359 361 364 366 363 355 349 345 341 338 337 336 335 335 335 335 335 337 338 338 338 337 337 337 337 336 337 336 336 336 336 335 334 334 334 335 335 334 333 333 334 333 332 332 332 331 331 330 330 330 330 329 329 329 329 329 329 329 329 330 331 333 335 337 339 340 341 341 341 339 337 335 334 333 331 329 328 327 326 325
353 352 352 352 352 352 352 355 359 359 356 351 346 341 339 337 337 337 338 338 338 338 338 338 338 338 338 338 338 337 337 336 335 335 336 335 334 333 334 335 335 335 334 333 333 334 333 332 331 331 330 330 330 330 330 329 329 328 328 327 327 326 326 326 328 329 331 333 335 335 335 336 337 337 337 334 333 331 329 327 326 326 325 325 325
351 350 350 349 349 349 349 350 351 352 351 349 344 340 339 339 340 342 342 342 341 340 338 337 337 338 339 339 339 338 337 335 333 333 334 335 334 334 334 334 334 334 334 333 333 333 333 332 331 330 330 329 330 329 329 329 328 328 327 327 326 326 325 326 327 328 328 328 328 328 328 329 329 330 330 329 328 326 325 325 325 325 325 325 324
348 349 348 347 347 348 348 347 346 346 346 345 343 341 342 342 343 342 341 339 338 336 335 335 337 338 340 340 339 338 337 336 335 335 334 334 335 334 333 333 333 334 333 333 333 333 332 332 331 330 329 328 328 329 329 328 327 327 327 327 326 326 325 326 326 326 326 326 326 326 326 326 325 325 324 324 324 324 324 324 324 324 324 324 325
346 346 347 346 346 346 346 346 345 344 344 343 343 343 343 344 343 341 339 337 335 334 334 334 335 337 338 339 338 337 336 336 336 335 334 334 334 334 333 333 333 333 333 333 332 331 331 331 331 330 328 327 327 327 327 326 326 327 327 326 326 326 326 326 326 326 326 325 325 325 325 325 324 323 323 322 322 322 322 322 322 322 322 322 323
344 345 345 344 344 344 345 345 344 344 344 344 344 344 344 343 341 339 337 335 334 334 333 333 333 335 337 338 337 336 336 336 335 335 334 334 334 333 333 332 332 332 332 332 331 330 330 330 330 330 329 327 326 326 325 324 325 327 327 326 326 326 326 326 326 326 325 324 323 323 323 323 323 323 322 322 321 321 321 320 320 320 321 321 321
343 343 343 343 343 343 343 343 343 343 342 343 342 343 342 341 340 338 337 335 334 334 335 335 334 335 337 338 337 336 336 335 335 335 334 334 334 333 333 332 332 332 331 331 331 330 329 329 329 329 329 328 327 325 324 323 323 325 325 325 325 325 325 325 325 324 324 323 322 322 323 323 323 323 322 321 321 322 323 322 321 321 322 322 322
339 339 339 339 340 340 341 341 342 342 342 341 341 341 341 340 339 338 338 336 336 336 337 337 336 335 336 337 337 337 336 335 335 335 334 334 334 333 332 332 332 332 332 331 330 329 329 329 328 328 329 329 328 327 325 323 322 323 324 324 324 324 324 324 324 324 324 323 323 322 322 322 322 322 322 322 322 324 324 324 324 324 323 323 323
334 334 334 334 335 335 336 336 337 338 339 339 339 339 339 339 339 338 338 338 338 338 338 338 338 337 337 336 337 337 336 336 335 334 334 334 334 333 333 333 332 333 332 332 330 329 329 329 329 329 329 329 328 328 326 324 323 322 322 323 324 324 324 324 324 325 324 324 323 323 322 321 321 321 322 323 324 325 325 325 325 324 324 323 323
330 330 329 330 329 329 330 330 331 331 332 332 332 332 333 334 335 336 336 336 336 336 335 335 336 336 336 336 335 335 336 336 336 335 334 334 334 333 333 333 333 333 333 332 331 330 330 330 330 330 329 328 329 328 327 325 324 323 323 323 323 323 324 324 324 324 324 323 323 323 323 323 323 323 323 324 324 324 324 324 323 323 323 323 322
325 325 325 324 324 325 325 325 326 326 325 325 325 326 326 327 327 328 329 330 330 329 328 328 328 329 331 332 334 334 335 335 335 335 334 334 334 334 334 334 334 333 333 332 331 331 331 330 330 330 329 328 328 328 327 326 325 325 325 324 324 324 324 324 324 324 324 324 324 324 324 324 324 324 324 324 324 323 322 322 322 322 322 322 321
320 320 320 320 320 321 321 322 322 322 321 321 321 321 321 321 321 321 322 322 322 322 322 322 322 323 324 326 328 330 331 331 332 332 332 332 333 334 334 334 333 333 333 332 332 332 332 330 329 329 328 328 327 327 327 326 325 325 326 326 326 325 325 325 325 325 325 325 325 324 324 324 323 323 323 323 322 321 320 320 321 320 320 320 319
317 317 317 317 317 317 318 319 319 318 318 318 318 317 317 317 317 317 317 317 317 317 317 317 317 318 319 319 321 322 323 325 326 327 328 328 329 330 331 331 331 331 331 331 331 331 331 330 329 328 327 327 327 326 326 326 326 325 326 326 326 326 326 325 325 325 325 325 325 324 324 323 323 322 322 321 320 319 319 319 319 318 318 318 317
315 315 314 314 314 315 315 315 315 315 315 315 315 314 314 314 314 314 313 313 314 314 314 314 314 314 315 315 316 316 317 318 320 321 322 323 325 327 329 329 329 329 329 329 329 330 330 329 329 328 327 326 326 325 325 325 324 325 325 325 326 325 325 325 324 324 324 324 324 323 323 321 320 320 319 319 318 317 317 317 317 317 317 317 316
314 314 314 313 313 313 313 313 313 313 313 313 313 312 312 312 311 311 311 311 311 311 311 311 311 311 311 312 312 313 313 314 314 315 317 318 320 322 325 326 326 326 327 326 327 327 328 328 327 327 326 326 325 325 324 324 323 323 324 324 324 323 322 322 322 321 321 320 320 320 320 319 318 317 317 317 316 316 316 315 315 315 315 315 315
310 311 311 311 311 311 311 310 310 310 310 311 311 311 310 310 309 309 309 309 309 308 308 309 309 309 309 309 309 309 310 311 311 312 313 313 315 317 318 320 321 322 323 323 323 323 323 323 323 323 323 324 324 324 323 323 322 322 322 322 321 320 320 320 319 319 319 318 318 317 317 317 317 316 316 316 315 315 315 315 315 315 314 314 315
Wind_Speed
41 40 40 40 40 41 42 44 43 42 41 40 39 40 39 38 36 34 34 35 34 32 33 35 35 34 34 34 34 34 33 33 32 31 31 31 30 30 30 29 28 27 28 28 27 26 26 25 24 24 25 26 25 22 18 17 18 19 19 19 19 18 18 18 14 13 17 15 11 12 14 19 28 30 28 26 24 22 22 21 21 21 21 21 21
41 41 40 40 41 41 42 42 42 40 39 39 40 40 40 39 37 35 33 34 35 34 33 34 35 36 35 35 35 35 34 34 33 32 33 33 32 31 30 31 31 29 28 29 30 28 27 27 27 25 25 26 27 25 22 20 20 21 22 23 24 23 22 22 20 16 19 21 17 11 12 20 27 28 28 27 24 22 22 21 21 21 22 22 22
42 41 40 40 41 41 41 41 41 40 39 39 40 40 40 39 37 36 35 34 35 36 36 34 34 36 37 36 35 36 35 35 35 34 34 34 34 33 32 32 32 32 30 30 31 31 29 29 29 29 28 27 28 28 27 24 22 23 25 26 26 27 26 25 24 21 20 23 23 16 14 21 25 24 25 26 23 22 22 22 22 22 22 23 23
41 41 40 40 40 40 40 40 41 40 40 40 40 40 39 38 37 37 36 35 35 36 37 36 35 35 37 37 37 37 36 36 37 36 36 36 36 35 34 33 34 34 33 33 32 33 32 31 31 31 31 30 29 30 30 30 28 26 26 27 28 29 29 27 27 26 23 22 25 23 20 21 22 22 23 25 24 24 23 22 22 23 23 23 23
39 40 41 41 41 40 40 41 41 41 41 40 41 40 39 37 38 37 37 36 36 36 36 37 37 36 37 38 39 39 38 38 38 38 38 38 37 37 36 35 35 35 35 35 35 34 34 34 34 33 33 32 31 32 33 33 33 30 29 29 30 30 30 30 29 28 26 24 25 25 23 22 22 22 23 25 25 25 24 23 23 23 23 23 22
38 40 41 41 41 42 42 42 42 43 43 42 41 40 39 37 37 38 38 37 37 36 36 38 39 39 39 39 39 40 40 39 40 40 39 39 38 38 38 37 37 36 36 36 37 36 36 36 35 34 35 35 35 34 34 35 35 34 33 32 32 31 31 32 31 29 29 28 27 26 25 25 24 24 24 25 26 26 25 24 24 23 23 22 22
38 39 40 40 41 42 43 43 43 44 44 43 42 40 39 39 38 38 39 39 37 37 37 38 39 41 41 40 40 41 41 41 41 41 40 39 39 39 38 39 38 36 36 37 37 38 38 38 38 37 37 38 38 37 36 36 36 36 37 35 33 32 32 32 32 31 30 29 28 27 27 26 26 26 25 24 25 27 27 26 24 24 24 23 23
38 38 39 40 41 42 43 44 44 44 44 43 42 41 40 40 39 38 39 39 39 39 38 39 40 40 41 42 42 41 41 41 41 41 40 40 39 39 39 39 38 37 36 36 37 38 39 39 39 40 40 40 40 40 39 38 37 37 38 37 34 33 33 33 32 32 31 29 28 29 28 27 27 26 24 24 26 28 29 29 27 26 25 24 24
38 38 38 40 41 42 42 42 43 43 42 42 42 41 41 41 40 39 39 40 41 40 39 38 39 39 40 41 42 41 41 41 42 41 41 41 40 40 39 39 38 37 37 36 37 38 40 40 40 41 42 41 41 41 41 41 40 39 39 38 36 35 34 34 33 32 30 28 28 27 26 26 28 27 24 26 30 31 30 29 28 27 27 26 26
38 38 38 39 40 41 41 41 41 41 41 41 42 42 41 40 40 40 40 40 41 41 39 38 38 39 40 40 41 42 41 41 42 43 43 43 41 39 38 39 38 38 37 37 37 38 39 41 41 41 42 42 42 43 43 43 43 43 42 40 40 38 36 34 33 33 31 28 28 27 25 26 30 31 30 31 31 30 29 28 28 26 24 23 25
38 38 38 38 39 40 40 40 40 41 41 41 42 42 41 40 40 41 40 39 40 40 39 39 39 39 40 41 41 42 42 42 42 44 44 44 43 40 39 38 38 38 38 37 37 38 39 40 40 40 41 43 43 43 44 44 45 45 44 43 43 42 40 37 35 34 32 30 30 29 27 28 31 33 33 32 30 29 30 30 29 26 23 21 19
36 38 38 38 39 39 40 40 40 40 41 41 41 42 41 40 39 39 39 39 38 39 40 41 41 39 39 41 42 42 43 43 43 44 45 45 45 43 40 38 38 38 39 39 39 39 38 39 39 39 40 42 43 44 44 45 46 45 45 45 45 45 44 42 39 37 35 33 32 31 32 32 31 32 34 33 32 31 31 31 30 29 28 25 22
34 37 38 37 39 40 40 40 40 40 40 41 40 40 40 39 38 39 39 39 38 38 40 42 41 39 39 40 42 42 42 43 44 44 45 46 47 45 42 39 38 39 39 40 40 39 38 37 37 39 40 41 42 44 44 45 46 46 47 47 47 47 46 46 45 43 41 38 35 35 37 35 33 35 36 35 34 33 31 31 32 31 30 29 30
31 34 37 37 38 40 40 40 40 39 39 40 39 38 39 39 39 38 38 38 38 39 40 41 41 41 40 39 41 42 42 43 45 45 46 46 47 48 46 42 39 39 40 41 41 40 39 38 38 39 40 40 41 43 43 45 46 47 48 49 49 49 48 49 50 48 45 42 40 40 41 40 39 40 39 36 36 36 34 34 34 34 34 34 35
30 32 36 37 37 39 40 40 39 39 38 38 38 37 38 39 39 38 37 37 39 40 40 40 41 41 41 40 39 40 42 43 44 46 47 47 47 48 47 44 40 39 40 41 41 41 40 40 40 40 40 40 41 42 43 44 44 46 48 50 51 51 50 51 53 52 50 48 46 46 45 44 44 42 39 37 39 40 39 38 38 37 36 34 32
29 30 34 36 36 38 39 39 39 38 38 37 37 37 37 37 38 38 36 36 37 38 38 39 40 41 42 41 39 39 40 42 43 45 46 46 47 48 48 46 42 40 40 41 41 41 41 41 41 41 42 42 42 42 43 43 43 44 45 47 49 50 51 54 55 53 52 52 51 50 48 46 44 43 40 39 39 40 39 38 38 37 33 28 27
28 29 32 35 36 36 38 38 38 38 37 37 37 37 37 37 37 37 36 35 35 36 37 39 39 40 40 41 41 40 39 39 41 44 45 45 45 46 47 46 42 41 41 40 39 40 41 42 43 43 43 43 43 44 43 42 43 43 43 44 44 45 50 53 51 50 52 54 54 54 51 47 44 42 42 40 40 40 39 37 36 36 32 24 21
27 27 30 34 35 36 37 38 37 37 37 37 36 35 36 36 36 36 36 35 35 35 36 37 37 38 38 40 42 41 39 36 36 38 41 43 44 45 46 44 42 42 41 39 38 39 40 42 43 44 44 43 43 44 44 43 43 43 43 42 40 43 49 48 43 44 49 52 54 54 52 50 47 44 43 42 42 42 42 40 38 36 32 25 22
27 27 28 32 34 35 36 37 37 37 37 37 36 35 35 35 34 34 35 35 34 33 32 32 34 35 36 37 38 38 37 35 33 32 34 37 41 44 44 43 42 41 39 38 38 39 40 40 41 43 44 44 43 43 43 44 45 45 44 40 39 44 47 42 40 42 44 46 50 52 53 52 49 46 45 44 44 45 47 45 40 37 34 30 26
28 27 27 29 33 35 35 36 37 36 36 35 35 34 33 32 32 32 32 33 32 32 31 30 31 32 33 34 34 35 35 34 32 31 30 31 36 41 44 43 41 39 38 38 38 39 39 39 38 40 41 42 43 44 44 45 46 47 44 41 42 46 43 38 40 44 43 44 47 50 52 52 49 47 45 45 46 48 49 46 42 41 38 33 30
28 27 26 27 31 33 34 35 36 36 35 35 33 32 32 31 31 31 30 30 30 30 30 29 28 28 30 31 32 32 32 31 31 31 30 30 31 36 41 43 41 37 36 37 38 38 37 37 38 38 38 38 40 43 45 47 48 48 48 48 50 48 41 37 40 42 43 44 45 45 47 47 46 46 46 45 46 47 47 47 46 45 43 39 35
27 28 28 28 30 32 32 33 34 34 33 33 32 30 30 30 29 29 29 28 28 29 30 30 28 26 26 27 29 31 31 30 29 29 31 32 32 34 38 41 40 38 36 36 37 37 36 36 37 38 38 39 39 40 42 45 48 50 53 54 53 49 44 41 40 40 41 43 43 42 43 42 43 45 46 46 46 45 44 47 48 48 46 46 43
27 30 29 29 30 31 32 32 32 32 31 31 31 30 28 28 28 28 28 27 27 27 28 28 28 26 24 24 26 28 30 30 30 29 30 32 34 35 37 37 38 39 38 37 37 37 37 37 37 38 39 40 41 41 41 42 46 50 53 54 54 51 47 45 43 40 40 40 40 42 42 41 42 43 45 48 48 48 48 49 50 49 46 46 46
26 29 30 31 30 30 31 31 31 31 30 30 30 28 27 28 27 27 28 27 26 25 25 26 26 25 24 23 22 22 24 26 29 31 32 33 34 35 37 37 38 39 40 40 39 38 38 38 39 40 40 40 41 42 42 43 45 47 49 50 52 52 50 47 44 42 40 39 40 42 42 42 43 44 47 49 50 51 52 50 48 47 45 43 43
22 26 27 28 29 29 29 29 30 30 29 29 29 27 27 26 26 26 27 26 25 24 23 23 23 23 23 23 21 19 17 17 20 25 29 32 33 34 35 36 37 39 41 41 39 37 36 36 37 39 39 40 41 41 42 44 44 45 46 47 48 51 51 48 46 43 40 39 41 41 41 42 45 47 48 47 47 48 49 46 42 40 38 38 38
17 20 22 24 25 27 27 26 27 28 27 27 28 27 27 26 25 25 25 25 25 23 22 22 22 22 21 21 21 20 17 14 15 17 20 23 25 29 32 34 36 38 41 42 39 35 34 33 33 33 33 34 36 37 39 41 42 43 44 45 47 50 49 47 45 40 36 38 41 43 42 41 43 45 44 42 43 45 44 40 36 33 33 33 32
13 16 19 21 22 24 25 24 25 25 25 25 26 26 27 26 24 24 24 23 22 21 20 20 20 20 19 19 19 19 17 14 12 11 12 13 15 19 23 27 31 35 37 40 40 39 38 36 32 30 29 29 30 31 34 36 37 38 40 42 44 47 48 48 46 40 37 40 42 41 39 37 36 38 38 38 40 41 39 37 34 31 32 35 33
10 13 17 20 21 22 24 24 23 21 20 19 19 19 22 22 22 23 24 23 21 20 20 19 19 19 19 20 19 15 12 11 11 8 7 7 7 7 9 11 15 18 21 25 28 31 34 36 35 34 34 33 33 34 36 37 37 38 40 40 41 42 45 48 46 42 42 43 40 38 39 37 35 36 36 35 36 38 40 40 38 36 37 37 33
7 10 13 16 18 19 20 22 22 21 20 17 14 12 13 15 17 19 21 21 20 20 21 21 19 16 14 14 15 15 14 12 11 9 7 5 4 3 3 3 4 7 9 12 14 16 20 24 27 30 31 31 32 34 35 36 35 37 38 37 37 38 39 41 41 41 42 40 37 39 43 40 34 32 32 33 35 40 43 44 43 42 42 39 34
6 7 7 10 14 15 16 19 22 23 22 20 17 14 11 10 12 14 15 15 16 16 18 20 19 17 14 11 11 14 15 13 11 9 7 5 3 3 4 6 7 9 11 12 12 13 14 15 17 19 20 21 22 25 28 29 29 31 32 32 33 35 37 39 40 42 42 40 39 42 44 40 33 29 32 37 40 42 43 45 45 43 41 39 35
10 9 7 6 11 15 15 18 23 25 23 23 23 22 21 18 16 15 14 13 13 13 14 15 15 15 15 16 17 16 14 13 11 9 7 6 4 2 1 3 4 6 9 11 11 10 11 12 14 16 17 17 19 21 23 25 26 27 28 29 31 33 34 37 40 41 42 41 41 41 42 40 35 32 34 39 42 41 41 44 45 44 44 43 38
12 11 10 9 11 13 13 18 25 26 23 24 26 27 28 26 23 21 20 18 17 17 17 18 17 15 14 16 18 19 19 16 14 12 11 10 10 9 8 7 6 5 3 2 2 4 6 7 9 11 13 15 17 19 22 24 26 27 28 29 31 33 35 38 40 41 41 41 41 40 39 37 36 36 40 44 45 43 42 42 41 40 41 39 36
10 10 10 11 13 13 13 20 26 26 24 25 25 26 28 27 25 25 26 25 24 24 22 21 21 21 20 19 19 21 21 19 17 15 15 14 14 13 13 13 14 14 13 13 12 11 9 8 8 10 11 14 16 18 21 23 26 28 29 30 32 35 38 41 42 42 42 42 41 40 39 38 37 36 37 40 41 41 43 45 43 40 37 33 31
9 10 9 11 14 15 16 21 26 26 25 25 25 24 25 28 28 27 27 26 26 26 26 25 25 25 25 24 23 23 23 21 20 18 17 17 17 16 16 17 18 17 17 16 14 12 10 10 11 12 14 15 17 19 21 24 26 28 30 31 33 36 40 41 42 41 42 42 41 39 38 37 36 34 33 35 36 36 38 42 42 39 35 32 31
10 11 11 11 14 15 16 19 25 26 24 24 25 26 26 27 27 26 25 24 23 23 24 25 25 25 25 25 24 23 23 22 21 20 18 17 17 16 18 19 19 17 17 16 15 13 12 12 13 14 15 16 18 19 21 24 26 27 29 30 32 35 37 39 40 41 40 39 37 34 32 33 35 37 38 38 39 39 39 41 44 44 42 39 35
12 14 14 14 14 15 16 17 21 25 26 25 26 27 26 26 25 25 25 25 24 23 23 23 23 22 23 23 22 21 21 20 20 19 19 18 15 15 18 19 17 15 15 15 15 14 13 14 14 15 14 15 17 18 20 22 24 25 26 27 28 30 32 34 35 37 38 37 34 31 30 32 34 35 34 32 33 34 35 35 35 36 37 38 35
16 16 15 15 15 17 19 20 19 22 26 27 27 26 26 26 26 26 25 24 23 22 21 20 21 21 20 19 19 19 17 16 16 16 17 16 14 15 16 16 14 13 13 13 13 13 13 14 14 14 14 14 15 17 19 20 22 24 25 25 24 26 28 28 26 25 25 23 19 17 18 20 22 24 26 25 22 20 21 24 26 24 25 29 28
15 15 14 15 17 18 21 23 23 24 26 27 27 27 27 26 26 25 24 23 22 21 19 18 19 19 17 16 17 17 15 15 15 15 15 14 14 13 13 12 12 12 11 11 11 11 12 12 12 13 13 13 15 17 18 19 21 22 22 22 22 23 24 24 25 27 23 20 22 24 22 19 18 13 9 15 21 21 23 30 36 36 35 34 30
13 12 12 13 14 16 19 24 26 25 26 27 27 27 27 25 24 25 24 23 21 20 19 18 18 17 16 16 16 15 15 15 15 15 15 14 12 11 10 10 10 10 10 9 9 10 10 9 10 11 12 13 16 17 16 17 19 19 19 20 21 21 21 22 28 36 37 36 38 40 39 39 41 41 39 37 37 35 34 34 35 36 36 34 29
10 10 10 12 14 15 19 24 25 24 25 25 25 25 25 24 24 24 24 22 21 20 19 19 17 16 16 17 16 14 15 15 15 13 12 12 11 9 8 8 8 8 7 7 8 8 8 7 7 8 10 13 15 15 15 16 17 17 17 18 19 19 19 19 22 29 34 35 37 39 42 43 44 45 45 42 39 38 38 35 32 30 30 28 25
14 15 17 19 21 22 23 23 24 24 24 24 23 24 25 25 26 25 24 23 22 21 20 19 17 15 15 16 15 13 13 13 12 11 10 10 9 8 8 8 7 6 6 6 7 7 7 6 6 6 8 11 13 13 14 16 15 14 16 17 18 18 19 19 20 22 24 26 27 28 30 34 37 41 42 39 36 35 34 33 31 27 23 21 20
21 22 22 23 24 25 24 24 24 25 25 24 24 24 25 25 25 24 23 22 22 20 19 17 16 14 14 13 12 12 12 11 10 9 9 9 8 8 8 7 6 4 4 4 4 5 5 5 6 6 8 10 11 11 13 14 13 12 14 15 16 16 18 19 21 23 24 26 28 28 28 30 33 35 36 35 34 33 32 31 31 28 24 22 21
27 28 28 29 29 27 25 24 24 23 22 21 21 21 22 22 22 21 21 21 20 19 18 16 14 14 13 11 10 10 11 10 9 8 8 9 8 7 7 7 6 5 4 3 3 3 4 5 6 7 8 10 10 9 10 12 11 11 11 12 13 14 15 16 18 20 23 26 28 29 30 31 31 31 31 31 30 28 27 26 26 25 23 22 21
30 30 31 32 32 31 30 29 28 26 24 22 20 18 17 17 17 16 17 18 19 18 17 15 14 14 14 12 11 11 10 9 8 8 8 8 8 7 6 7 6 5 5 5 4 4 5 6 7 7 8 9 9 8 8 8 9 9 9 10 11 11 12 13 15 17 20 23 26 28 30 30 29 28 27 26 26 25 23 21 20 19 20 21 21
30 30 31 31 31 31 30 30 30 29 28 27 26 25 23 21 19 19 18 17 16 15 14 14 13 13 12 10 10 11 11 11 10 9 8 7 7 7 7 6 5 4 5 6 5 5 6 8 8 8 7 7 8 7 6 6 7 7 8 9 10 11 11 12 14 16 18 21 24 25 26 25 25 25 23 22 21 19 16 13 12 14 17 19 20
30 30 30 29 29 29 29 29 29 29 28 28 27 27 27 27 27 27 27 26 24 24 23 23 22 21 19 16 15 15 16 15 14 13 11 10 9 9 8 6 3 3 4 6 6 7 8 8 8 7 6 6 6 6 5 5 5 6 7 7 8 9 10 11 13 15 17 18 20 20 21 20 20 19 18 16 15 13 11 10 10 13 17 19 22
31 31 29 29 29 28 28 29 29 28 28 27 27 26 26 26 26 27 27 27 27 27 26 26 26 26 26 25 24 23 22 22 20 19 17 16 14 11 9 7 6 4 4 5 5 5 5 6 7 8 7 5 4 5 5 4 4 5 6 6 6 6 7 7 9 10 12 13 14 15 16 16 14 13 13 12 12 11 12 12 14 16 18 20 22
32 31 30 30 29 28 28 28 28 27 26 26 25 26 26 26 26 27 27 27 27 27 27 27 27 26 26 26 25 25 25 25 24 23 22 21 19 15 12 11 11 9 7 6 6 5 4 5 7 9 8 6 4 3 3 4 3 3 4 5 5 5 5 5 6 7 7 8 9 10 11 11 11 11 11 11 11 11 11 12 12 13 14 15 17
33 32 31 31 30 29 28 27 26 26 25 24 24 25 26 26 27 27 27 27 28 27 26 26 26 26 26 26 25 25 25 26 25 25 24 24 22 20 18 17 16 14 12 11 10 9 8 7 6 6 6 6 5 4 3 4 3 2 2 4 4 4 3 4 4 5 5 5 5 6 8 9 9 9 9 8 8 7 7 8 8 8 8 10 11
31 31 31 31 30 29 28 28 27 26 26 25 25 25 25 26 27 27 27 27 28 28 27 26 25 25 25 25 25 25 25 25 24 24 24 25 24 23 22 21 19 18 17 15 14 12 10 9 7 6 5 3 2 3 3 3 2 2 2 3 3 3 3 3 4 4 4 4 5 6 6 7 7 7 6 6 6 5 4 4 4 3 4 4 6
30 29 29 29 28 28 28 28 27 26 26 26 25 25 25 26 26 27 27 28 27 26 26 26 25 25 25 25 25 25 25 24 24 24 24 24 24 24 24 24 22 21 20 19 18 17 15 13 12 10 8 6 5 5 5 5 4 4 4 5 4 3 4 4 3 3 4 4 5 5 5 6 6 5 4 4 4 4 3 3 2 1 1 1 3
Wind_Direction
202 204 206 206 207 207 207 207 207 207 207 206 207 208 209 208 207 206 206 206 206 207 209 210 210 210 210 211 210 210 210 210 212 212 211 213 215 215 214 212 211 214 214 214 214 212 212 212 216 218 220 226 228 223 222 223 222 224 225 224 220 221 223 219 220 235 238 235 234 236 237 226 217 215 216 219 223 228 235 241 244 244 245 248 250
201 204 206 207 208 208 208 208 208 207 206 206 208 209 209 209 208 206 206 206 206 207 208 209 210 210 210 210 210 210 210 210 210 211 210 211 213 213 214 213 212 214 215 214 213 213 214 215 216 217 220 227 231 228 225 225 225 225 225 227 227 224 224 225 224 230 238 237 234 235 232 221 215 215 218 222 227 232 235 237 239 240 242 246 250
201 203 205 207 209 210 209 209 208 208 207 207 208 209 209 209 208 207 207 207 207 208 209 210 210 209 209 209 209 209 210 210 210 211 211 211 211 211 212 213 213 213 214 215 214 213 215 217 218 218 218 223 229 230 228 226 228 229 226 226 228 227 226 227 226 226 233 237 236 231 218 212 214 219 224 227 230 233 234 235 237 237 240 244 250
200 202 204 207 209 210 210 209 208 208 207 208 209 209 209 209 208 208 208 208 208 209 210 211 211 210 209 209 209 209 209 211 210 211 213 213 212 211 211 212 214 215 215 215 215 214 215 218 220 219 218 220 225 228 228 229 230 230 228 227 228 229 228 228 230 230 231 235 237 233 224 218 219 224 228 228 229 232 233 233 234 237 240 245 251
200 201 204 205 207 208 209 209 208 208 208 208 209 210 209 209 209 208 208 208 209 210 210 210 211 211 210 210 210 210 210 211 211 212 214 215 214 213 212 212 214 216 217 216 216 216 216 219 221 220 218 219 221 223 225 226 228 229 230 230 229 230 230 230 231 232 232 234 238 236 233 232 231 228 227 225 225 227 230 233 236 239 243 245 249
200 202 204 205 205 207 207 208 207 207 208 208 209 209 209 208 208 208 208 208 209 210 210 210 211 211 212 212 212 212 212 212 213 214 214 214 215 215 214 214 215 216 218 218 218 217 218 220 222 221 219 218 220 221 222 223 224 225 228 230 230 229 228 229 230 231 232 233 237 238 235 234 235 234 231 227 224 224 227 231 235 238 241 244 246
201 202 204 204 206 207 207 207 207 207 208 208 209 209 209 208 208 208 208 208 208 209 210 211 211 212 214 214 214 215 214 214 215 215 214 214 215 215 215 216 216 216 218 219 220 220 220 221 222 222 221 221 221 221 221 222 222 223 225 227 228 227 225 226 227 228 229 231 233 235 233 232 234 235 235 233 230 230 229 227 226 229 234 238 244
200 202 203 204 206 207 207 207 208 208 208 208 208 209 209 208 208 208 208 208 208 209 210 211 212 213 214 215 216 216 216 215 215 215 214 214 215 215 216 216 216 217 218 220 221 222 222 223 223 223 224 224 224 223 222 222 222 223 224 224 225 225 223 223 223 223 225 227 228 231 231 230 231 233 234 228 224 226 227 225 224 226 228 232 239
199 201 202 204 206 207 207 207 208 208 208 207 208 208 209 208 208 208 208 208 209 210 211 212 212 213 214 216 216 217 217 217 216 215 215 214 214 216 217 217 217 217 218 220 222 223 224 224 224 225 226 226 227 226 226 225 223 223 223 222 222 223 222 221 220 220 221 224 227 227 227 227 227 227 225 220 220 223 224 224 226 230 231 231 234
198 200 202 204 205 206 206 207 207 207 207 207 208 208 208 208 207 208 209 209 210 210 211 212 213 214 214 216 216 217 218 218 218 217 216 215 215 216 217 217 218 219 219 220 221 223 225 225 226 227 228 229 229 229 229 228 228 228 227 224 222 221 221 219 219 219 219 220 223 222 221 225 225 223 223 223 224 225 223 220 222 227 228 229 233
198 200 202 203 203 204 205 206 206 207 207 207 207 208 208 207 207 208 209 209 210 210 210 212 214 215 214 216 217 217 219 220 219 219 219 218 217 216 217 218 219 219 221 221 222 224 225 226 227 228 229 229 230 231 232 231 231 232 231 230 227 225 222 220 219 219 218 220 223 221 220 225 226 224 225 226 225 225 224 221 220 220 218 220 229
199 200 202 201 201 201 203 204 205 206 207 207 208 208 208 208 208 208 208 209 209 208 209 211 214 214 214 215 217 218 220 221 220 220 220 220 219 218 218 219 219 220 221 223 224 225 225 226 227 228 229 230 230 231 232 233 234 234 234 234 233 231 228 225 224 222 219 220 222 222 222 226 227 225 224 223 223 224 225 223 220 219 218 220 227
201 200 201 200 199 200 200 202 204 206 207 208 208 208 208 208 208 208 208 209 208 208 209 211 213 214 214 215 217 219 221 221 221 221 221 221 221 221 220 221 221 222 222 224 225 225 225 226 227 228 230 231 231 230 231 233 234 235 236 236 236 235 233 232 231 230 226 223 223 224 225 225 226 227 225 221 219 220 221 220 220 219 219 221 227
203 200 201 200 199 198 199 200 202 204 206 207 208 208 208 208 209 209 209 208 208 209 210 211 213 214 215 216 217 219 221 222 222 222 222 222 222 222 222 223 224 224 225 226 226 226 226 226 227 228 230 230 231 230 230 231 232 232 233 234 235 235 235 234 234 234 232 229 228 230 231 229 229 231 228 221 217 217 217 218 218 219 221 225 231
205 201 200 201 199 197 197 198 200 203 204 205 207 208 208 209 210 210 209 209 209 210 211 212 214 215 216 217 218 220 222 223 223 223 223 223 223 223 223 224 225 227 228 229 229 229 229 228 229 230 230 231 231 230 229 229 230 230 230 231 233 234 234 234 234 233 232 232 233 235 236 234 233 233 230 223 219 220 221 223 223 222 223 225 228
204 201 199 200 200 197 197 197 198 201 202 203 205 206 208 209 210 210 211 211 212 213 213 214 215 217 218 219 220 222 224 224 224 224 224 224 223 223 223 224 226 228 230 231 232 231 231 231 231 231 232 233 233 232 232 230 229 229 230 230 232 233 234 236 236 234 233 233 235 237 238 238 236 235 231 226 223 223 223 225 225 220 216 215 215
205 201 199 200 200 198 197 196 197 198 200 201 204 205 207 209 211 210 211 212 214 214 215 216 217 218 219 220 222 224 225 226 225 225 225 224 223 222 222 224 227 230 232 234 234 235 234 233 233 233 233 234 234 234 234 231 229 229 230 231 232 233 236 237 237 236 236 236 238 239 239 239 238 236 234 230 226 223 219 218 218 212 206 204 205
208 204 200 199 200 199 198 197 197 197 199 201 203 204 206 209 210 211 211 213 215 217 218 219 220 221 221 222 223 226 227 228 228 228 227 225 223 222 222 224 227 231 234 236 237 238 238 237 236 235 236 236 236 236 235 232 230 230 231 232 232 234 237 237 235 237 238 238 239 240 239 239 238 237 235 231 228 223 218 217 215 207 203 204 204
213 208 204 200 199 199 198 198 197 198 199 201 203 204 206 208 210 211 212 215 218 219 220 221 223 224 225 225 227 229 231 231 232 232 230 226 224 223 221 222 226 230 233 236 238 239 241 241 240 239 239 239 239 238 238 235 233 233 232 232 233 236 238 236 234 235 236 236 237 237 237 237 236 235 234 231 228 224 221 220 216 207 204 206 203
217 213 208 203 199 198 198 198 198 199 200 201 203 204 205 207 208 210 212 215 218 221 222 223 225 226 227 228 230 231 232 233 234 235 234 231 227 225 222 221 225 228 230 234 237 240 242 242 243 243 243 242 242 241 241 239 237 236 235 233 235 239 240 238 236 236 236 236 237 236 236 235 233 232 231 229 226 224 222 222 218 210 207 205 203
215 212 209 204 199 198 198 198 198 200 201 200 201 203 205 205 206 209 211 214 217 220 222 225 227 228 228 229 231 233 234 235 235 236 237 236 234 229 225 224 225 227 230 234 236 239 242 243 244 246 246 246 245 244 243 242 241 240 238 237 240 242 242 240 240 239 237 237 238 237 236 235 232 230 229 226 224 222 220 220 219 215 211 208 205
211 207 205 203 199 197 197 198 197 198 199 199 199 201 203 204 205 208 210 212 215 219 222 225 228 230 230 230 231 233 235 236 237 237 237 237 238 236 233 231 230 229 230 234 237 240 242 244 246 247 248 248 249 247 246 245 244 243 242 243 245 245 243 242 242 240 237 236 237 237 235 232 230 229 227 226 224 222 219 219 220 218 216 215 213
210 204 201 200 198 196 196 195 195 196 197 197 197 198 200 202 204 207 209 211 215 218 220 223 227 230 232 232 232 233 234 234 236 237 238 238 238 238 238 239 238 234 232 235 239 241 244 245 247 248 249 250 251 250 250 249 248 247 248 248 248 247 245 243 242 240 238 237 236 236 235 231 228 227 226 225 224 222 221 221 220 219 217 217 216
207 200 197 197 195 193 193 193 192 193 194 194 195 196 198 200 202 206 208 209 213 217 219 220 224 229 232 233 233 232 231 233 234 236 238 239 238 238 239 240 240 238 236 238 241 243 245 247 249 250 251 252 253 253 253 253 252 253 253 254 253 250 246 243 242 240 239 238 236 236 235 232 229 228 227 225 224 223 223 223 221 219 216 213 213
203 195 193 192 190 188 187 188 189 190 191 192 193 194 196 199 201 203 205 207 210 213 215 215 218 223 227 230 233 231 230 232 233 235 238 239 238 238 238 238 240 239 237 238 241 243 245 248 251 252 253 255 255 255 255 255 256 257 258 258 256 252 248 244 243 240 238 239 240 240 239 235 232 232 232 228 224 223 224 222 220 218 214 210 209
196 190 187 185 184 182 180 181 184 187 189 190 192 195 197 199 201 202 203 207 210 210 210 211 213 217 220 223 227 230 233 237 239 238 238 237 237 237 236 237 238 237 236 236 238 240 243 246 250 253 255 257 257 256 257 258 258 258 258 258 256 252 249 246 245 243 241 244 247 247 245 242 239 237 234 229 223 221 220 219 216 211 207 203 201
179 179 178 177 175 176 176 178 181 183 186 189 192 197 199 200 201 202 203 205 208 207 206 205 205 208 211 214 218 222 224 224 223 226 229 230 232 235 237 240 241 241 241 242 243 244 246 248 251 254 257 260 261 262 263 263 263 263 262 261 259 256 253 250 248 247 247 247 249 253 255 254 249 243 234 226 222 218 215 214 209 201 198 198 197
148 157 166 169 170 172 176 178 178 175 175 178 183 190 197 200 201 203 205 206 205 203 202 202 202 203 205 207 209 203 194 190 188 185 193 200 205 217 231 240 246 250 253 255 256 256 256 257 258 260 262 264 266 267 268 268 269 269 268 267 266 264 261 258 254 251 249 247 248 255 258 254 249 241 230 223 220 215 210 208 204 197 194 194 190
128 141 156 165 168 169 171 171 169 162 155 153 154 164 183 195 198 199 202 205 207 205 203 201 199 194 190 194 197 183 160 152 157 153 149 153 156 171 206 233 251 258 263 266 267 267 266 265 265 267 268 270 271 271 271 273 274 275 274 273 272 270 267 264 260 257 254 250 247 248 249 247 242 233 223 218 219 215 208 203 200 196 193 190 187
111 122 142 163 173 173 166 159 156 153 149 144 134 123 129 154 173 179 184 190 198 205 205 199 193 185 168 148 154 161 151 139 137 138 138 145 164 208 241 256 260 259 261 264 266 269 272 276 279 281 283 286 285 283 283 284 284 284 283 282 278 274 270 267 264 263 261 257 251 248 247 246 240 226 213 210 213 212 205 200 197 194 188 186 187
87 91 95 128 171 180 174 155 146 145 146 143 134 120 108 105 115 126 136 149 161 170 173 167 167 173 167 142 125 124 124 120 120 122 122 123 128 145 204 250 261 264 265 265 267 275 285 292 297 301 303 303 300 296 296 298 296 295 295 293 288 284 279 273 270 268 264 260 256 252 247 243 237 224 211 207 208 206 200 196 195 191 187 185 185
87 88 89 106 145 171 175 154 143 140 138 136 134 128 115 102 94 96 105 117 128 133 136 134 130 134 142 137 125 117 112 110 111 111 110 108 107 106 102 94 81 70 63 48 26 11 356 341 329 324 320 315 311 308 306 304 302 300 299 296 292 288 284 280 278 275 271 265 261 256 250 243 234 223 212 207 204 199 192 190 191 189 185 183 182
92 92 89 102 124 145 155 147 142 140 137 134 133 131 126 117 106 99 99 103 109 112 114 117 119 116 115 116 116 112 108 104 102 103 103 102 100 96 91 84 74 66 62 61 57 49 36 19 359 341 329 320 314 310 306 303 301 299 296 293 290 289 287 285 283 279 275 270 265 260 254 247 239 228 217 210 206 196 187 185 186 184 180 177 174
92 92 88 95 108 119 133 142 142 141 140 139 137 133 130 127 123 116 110 105 105 105 105 107 111 111 110 108 107 104 101 96 94 95 96 95 92 89 85 80 73 62 55 53 50 41 26 10 356 345 336 328 322 317 311 308 306 303 299 297 295 293 292 290 286 281 277 274 271 266 260 255 247 235 220 210 205 198 190 184 181 177 175 172 168
92 87 88 92 97 100 113 133 142 141 139 138 136 132 129 127 125 123 121 116 111 108 106 106 107 108 106 104 101 99 98 95 93 93 93 91 92 90 84 78 72 62 55 52 48 41 31 18 8 1 353 345 340 335 328 323 320 316 313 310 307 304 301 297 291 286 282 278 274 270 269 267 260 245 227 212 202 197 191 186 180 176 172 168 165
93 87 88 91 94 95 99 115 134 141 141 139 136 132 129 128 125 122 121 119 118 116 112 109 107 107 107 104 101 99 98 97 96 94 91 87 86 87 83 76 69 62 55 50 46 42 35 26 18 14 7 0 356 351 345 342 338 334 331 328 323 318 315 309 302 295 288 280 275 273 273 274 270 256 235 215 202 197 190 180 176 173 166 159 157
89 87 87 91 97 98 97 101 115 131 137 137 134 130 127 126 124 122 119 117 117 117 115 112 110 108 107 106 103 99 95 94 94 94 92 87 81 81 84 83 76 67 59 52 48 43 36 31 28 24 15 9 6 1 355 353 350 346 344 342 337 334 333 333 332 327 312 296 293 296 290 285 281 263 233 206 189 182 167 143 126 119 120 121 120
93 90 91 99 103 100 97 98 103 113 124 130 130 128 126 124 122 121 119 118 117 116 115 115 112 106 104 108 111 105 95 90 89 88 87 84 77 75 82 87 83 74 66 59 53 47 40 36 35 31 23 17 13 8 4 2 359 357 355 354 355 356 358 10 29 40 40 42 50 50 49 51 52 55 90 114 109 107 111 110 106 102 101 101 100
93 100 104 104 100 96 100 104 105 106 112 118 122 125 126 124 121 118 116 116 116 115 113 112 108 103 103 112 117 113 101 93 89 87 85 83 78 73 76 85 87 82 74 67 59 50 43 41 38 35 29 21 15 14 16 13 10 9 10 11 14 18 21 35 58 70 73 74 75 75 73 72 72 71 71 72 77 81 83 87 94 101 105 108 114
84 104 106 93 85 88 99 107 107 105 107 113 118 121 120 117 116 115 115 114 112 110 109 107 105 103 106 111 113 110 102 96 94 92 90 90 89 81 72 77 89 89 81 72 63 55 49 45 39 34 27 20 17 22 27 25 21 24 28 27 29 34 37 46 63 76 81 84 88 90 91 90 88 87 84 80 80 85 88 92 97 103 108 116 128
88 97 96 89 85 85 87 91 95 98 101 104 108 111 112 113 114 114 114 114 112 108 104 103 103 105 108 109 109 107 103 101 101 101 100 103 103 92 73 69 81 93 92 83 72 62 55 46 32 21 19 20 24 30 33 31 31 38 42 40 41 46 50 55 63 69 73 77 81 85 91 96 98 100 102 101 101 104 108 110 111 111 115 127 142
78 79 78 76 76 77 77 80 86 93 95 95 96 100 106 112 116 116 118 120 120 115 111 107 107 112 116 114 112 113 113 112 113 116 120 122 118 98 75 64 67 79 86 85 78 64 51 38 25 14 15 23 29 34 36 36 40 48 49 49 52 54 56 61 70 76 80 84 87 88 89 91 95 100 106 110 113 116 117 119 122 128 138 148 158
70 68 66 64 64 64 66 70 76 83 90 95 98 101 106 113 119 124 129 131 128 124 119 113 111 115 116 110 111 126 133 131 128 131 135 134 125 105 81 68 64 57 41 38 50 46 31 23 19 15 21 29 33 33 37 44 52 58 60 59 62 65 66 69 75 83 89 94 96 98 98 98 99 102 106 110 113 116 120 126 134 142 150 158 167
66 65 64 63 61 58 58 59 60 64 70 77 83 88 97 108 116 122 130 136 138 138 136 132 128 127 120 108 105 118 127 123 118 124 127 123 115 105 89 76 69 53 23 8 11 21 30 33 29 23 27 37 39 36 41 52 57 61 70 78 79 78 79 83 88 94 100 103 104 104 105 106 107 110 113 117 121 124 128 134 142 151 160 169 177
63 63 62 61 59 56 55 55 55 56 59 60 60 60 62 67 69 68 72 85 98 102 100 100 104 109 112 109 109 110 107 100 97 100 101 94 90 93 95 89 75 46 25 22 29 43 52 46 33 25 31 44 48 46 50 62 66 67 75 89 94 92 93 100 106 110 112 112 112 112 113 114 116 118 122 126 129 130 133 141 153 164 171 177 182
63 63 62 61 59 56 54 53 54 55 55 55 54 54 54 55 57 57 57 60 62 62 61 61 63 66 69 72 76 80 82 82 79 75 70 64 63 70 80 85 69 27 25 38 50 60 62 49 30 23 33 49 58 62 64 71 84 87 85 87 96 102 106 114 121 123 122 120 119 118 117 116 115 116 118 121 123 125 132 148 166 176 182 186 189
64 63 61 61 60 58 56 56 55 54 54 53 53 53 53 53 54 56 57 57 58 58 57 55 56 57 58 60 61 64 66 68 67 65 62 60 60 60 64 70 69 61 50 40 36 47 67 55 31 27 39 53 61 67 70 73 90 103 102 99 103 110 117 124 127 127 126 123 121 117 114 113 114 116 117 121 127 135 146 158 167 172 178 183 187
65 64 62 61 60 58 56 56 55 54 54 54 54 54 55 54 54 54 55 55 56 57 56 54 54 54 55 56 58 60 62 63 64 63 60 58 58 61 64 64 64 70 78 69 52 59 88 74 35 26 37 50 53 59 78 87 95 112 125 122 114 111 117 123 125 125 125 122 120 117 113 113 118 125 130 135 140 145 150 157 165 170 172 174 177
66 65 64 63 61 60 59 58 58 57 56 56 56 56 56 56 55 54 55 56 56 55 55 54 52 52 53 54 55 57 59 59 58 58 57 56 57 63 69 69 65 67 73 73 70 76 87 82 60 45 44 44 42 52 82 93 89 98 140 145 136 130 131 129 125 124 125 123 123 123 122 122 126 132 140 147 151 148 142 137 140 153 166 172 174
67 67 67 66 64 63 62 62 62 61 60 60 60 58 57 57 55 54 55 57 56 55 54 53 52 51 51 52 53 55 57 57 55 54 55 55 55 59 66 69 69 70 71 71 73 81 86 82 81 87 94 89 82 95 111 108 82 69 123 142 141 138 140 141 140 138 132 124 120 121 128 135 137 135 134 135 136 140 142 131 122 135 155 171 191
66 66 67 67 66 65 64 63 63 63 63 64 63 61 61 60 58 56 56 57 56 55 54 54 53 52 52 52 53 55 56 56 56 55 55 55 55 56 59 62 65 69 72 72 73 77 79 78 77 79 85 98 119 138 153 160 158 150 151 156 160 163 160 155 153 153 152 146 135 124 125 133 134 129 130 138 136 132 130 123 127 174 179 141 197